Weather History for Fairbanks Eiels, AK

Change the Weather History Date:

Friday, May 24, 2013

  Actual Average Record
Temperature  
Mean Temperature 54 °F -  
Max Temperature 70 °F 63 °F 88 °F (1960)
Min Temperature 37 °F 40 °F 32 °F (2014)
Degree Days  
Heating Degree Days 12    
Growing Degree Days 4 (Base 50)    
Moisture  
Dew Point 36 °F    
Average Humidity 56    
Maximum Humidity 90    
Minimum Humidity 23    
Precipitation  
Precipitation 0.00 in - - ()
Sea Level Pressure  
Sea Level Pressure 30.07 in    
Wind  
Wind Speed 3 mph (SE)    
Max Wind Speed 8 mph    
Max Gust Speed -    
Visibility 7 miles    
Events      
Averages and records for this station are not official NWS values.
T = Trace of Precipitation, MM = Missing Value Source: NWS Daily Summary

Daily Weather History Graph

Daily Weather History Graph

Search for Another Location

Airport:

Trip Planner

Search our weather history database for the weather conditions in past years. The results will help you decide how hot, cold, wet, or windy it might be!

Date:

Astronomy

May. 24, 2013 Rise Set
Actual Time 3:56 AM AKDT 11:36 PM AKDT
Civil Twilight 2:17 AM AKDT 1:12 AM AKDT
Nautical Twilight Sun does not rise Sun does not rise
Astronomical Twilight Sun does not rise Sun does not rise
Moon 11:11 PM AKDT (5/24) 4:09 AM AKDT (5/24)
Length of Visible Light 22h 55m
Length of Day
19h 40m
Full, 100% of the Moon is Illuminated
May 24
Full
May 24
Full
May 31
Last Quarter
Jun 8
New
Jun 16
First Quarter

Hourly Weather History & Observations

Time (AKDT) Temp. Windchill Dew Point Humidity Pressure Visibility Wind Dir Wind Speed Gust Speed Precip Events Conditions
12:10 AM 44.6 °F - 39.2 °F 81% 30.11 in 4.0 mi Calm Calm - N/A   Haze
12:21 AM 44.6 °F 41.4 °F 37.4 °F 76% 30.11 in 5.0 mi SSE 5.8 mph - N/A   Haze
12:55 AM 43.2 °F 41.5 °F 37.6 °F 81% 30.12 in 5.0 mi SSE 3.5 mph - N/A   Haze
1:04 AM 42.8 °F - 37.4 °F 81% 30.12 in 5.0 mi Calm Calm - N/A   Haze
1:12 AM 44.6 °F 43.1 °F 37.4 °F 76% 30.12 in 8.0 mi Variable 3.5 mph - N/A   Clear
1:22 AM 44.6 °F 42.2 °F 37.4 °F 76% 30.12 in 8.0 mi Variable 4.6 mph - N/A   Clear
1:32 AM 42.8 °F 39.3 °F 37.4 °F 81% 30.12 in 5.0 mi SSE 5.8 mph - N/A   Haze
1:55 AM 41.0 °F 38.0 °F 36.5 °F 84% 30.12 in 5.0 mi Variable 4.6 mph - N/A   Haze
2:09 AM 41.0 °F 38.0 °F 37.4 °F 87% 30.12 in 6.0 mi Variable 4.6 mph - N/A   Haze
2:22 AM 41.0 °F 37.1 °F 37.4 °F 87% 30.13 in 4.0 mi Variable 5.8 mph - N/A   Haze
2:55 AM 39.2 °F 34.2 °F 35.6 °F 87% 30.13 in 3.0 mi Variable 6.9 mph - N/A   Clear
3:55 AM 37.0 °F 32.4 °F 34.3 °F 90% 30.14 in 3.0 mi SSE 5.8 mph - N/A   Partly Cloudy
4:55 AM 37.8 °F 34.2 °F 34.9 °F 89% 30.14 in 3.0 mi Variable 4.6 mph - N/A   Clear
5:55 AM 40.1 °F 38.0 °F 36.3 °F 86% 30.14 in 4.0 mi Variable 3.5 mph - N/A   Clear
6:06 AM 41.0 °F - 37.4 °F 87% 30.14 in 5.0 mi Calm Calm - N/A   Haze
6:55 AM 45.0 °F - 37.9 °F 76% 30.13 in 7.0 mi Calm Calm - N/A   Clear
7:55 AM 49.8 °F - 39.4 °F 67% 30.13 in 7.0 mi Calm Calm - N/A   Clear
8:55 AM 53.4 °F - 40.1 °F 61% 30.12 in 7.0 mi Calm Calm - N/A   Clear
9:55 AM 56.8 °F - 40.6 °F 55% 30.12 in 9.0 mi Calm Calm - N/A   Partly Cloudy
10:55 AM 60.6 °F - 38.1 °F 43% 30.10 in 10.0 mi Calm Calm - N/A   Clear
11:34 AM 62.6 °F - 39.2 °F 42% 30.09 in 4.0 mi Calm Calm - N/A   Haze
11:40 AM 62.6 °F - 39.2 °F 42% 30.09 in 5.0 mi Variable 4.6 mph - N/A   Haze
11:55 AM 63.0 °F - 38.8 °F 41% 30.09 in 10.0 mi Variable 3.5 mph - N/A   Clear
12:55 PM 66.2 °F - 38.5 °F 36% 30.07 in 10.0 mi Variable 5.8 mph - N/A   Partly Cloudy
1:55 PM 64.4 °F - 35.2 °F 34% 30.06 in 10.0 mi Calm Calm - N/A   Overcast
2:55 PM 67.6 °F - 34.5 °F 29% 30.04 in 10.0 mi Calm Calm - N/A   Mostly Cloudy
3:55 PM 67.6 °F - 32.9 °F 28% 30.03 in 10.0 mi Calm Calm - N/A   Partly Cloudy
4:55 PM 67.3 °F - 31.8 °F 27% 30.01 in 10.0 mi Calm Calm - N/A   Clear
5:55 PM 70.3 °F - 31.3 °F 24% 30.00 in 10.0 mi ESE 5.8 mph - N/A   Mostly Cloudy
6:55 PM 68.2 °F - 29.5 °F 24% 29.99 in 6.0 mi NNE 3.5 mph - N/A   Haze
6:57 PM 68.0 °F - 30.2 °F 24% 29.99 in 4.0 mi North 3.5 mph - N/A   Haze
7:04 PM 68.0 °F - 28.4 °F 23% 29.98 in 5.0 mi Calm Calm - N/A   Haze
7:55 PM 69.4 °F - 32.2 °F 25% 29.97 in 10.0 mi WNW 8.1 mph - N/A   Overcast
8:55 PM 69.3 °F - 30.4 °F 24% 29.96 in 10.0 mi North 4.6 mph - N/A   Mostly Cloudy
9:55 PM 67.6 °F - 30.2 °F 25% 29.96 in 10.0 mi Calm Calm - N/A   Mostly Cloudy
10:55 PM 62.8 °F - 32.9 °F 33% 29.96 in 10.0 mi SE 4.6 mph - N/A   Mostly Cloudy
11:55 PM 55.9 °F - 34.2 °F 44% 29.96 in 10.0 mi SSE 3.5 mph - N/A   Clear